Location: Ottawa
(45.4170°N, 75.7000°W)
Time: 22:24:00
(UTC-04:00)

ISS - Pass Details

Date: 01 October 2020
Orbit: 417 x 420 km, 51.6° (Epoch: 25 October)

Event Time Altitude Azimuth Distance (km) Brightness Sun altitude
Rises 19:42:19 0° 298° (WNW) 2,370 1.5 -11.4°
Reaches altitude 10° 19:44:30 10° 306° (NW) 1,504 0.1 -11.8°
Enters shadow 19:49:33 21° 78° (ENE) 1,001 -2.4 -12.7°
Exits shadow 20:25:28 -69° 116° (ESE) 12,374 3.6 -18.9°
